FENGYUN 1C DEB

Satellite information

Favourite Embed

Satellite Type and Status

DEBRISIN ORBIT

Key statistics

Satellite FENGYUN 1C DEB at a glance.

Uptime

9554

Days in orbit

Revolutions

≈ 14.5

Per day

Orbit

SSO

Sun Synchronous Orbit

Inclination

99.0

Latest

Satellite identification and parameters

Extended collection of information and parameters for FENGYUN 1C DEB.

Object identification

Identified? True

Debris? True

Object name: FENGYUN 1C DEB

International designator: 1999-025SW

Object number (NORAD): 30141

Object ID (CCSDS): 30141

Country: PEOPLES REPUBLIC OF CHINA (PRC)

Current information (Y/N): Y

RCS size: SMALL

Orbital parameters

Period: 99.444 minutes

Inclination: 99.0149 deg

SMA: 7110.158 km

Apoapsis: 743.765 km

Periapsis: 720.281 km

RAAN: 97.2913 deg

Eccentricy: 0.0016514

Argument of periapsis: 146.7682 deg

Mean anomaly: 213.4549 deg

Mean motion: 14.48051035 rev/day

Mean motion (dot): 0.00005675 rev/day2

B* drag term: 0.0015361 1/REarth

Two-line elements (TLE)

Creation date: July 5, 2025, 5:45 p.m.

Reference frame: TEME

Reference center: EARTH

Epoch: July 5, 2025, 11:01 a.m. UTC

TLE line 0: 0 FENGYUN 1C DEB

TLE line 1: 1 30141U 99025SW 25186.45941829 .00005675 00000-0 15361-2 0 9999

TLE line 2: 2 30141 99.0149 97.2913 0016514 146.7682 213.4549 14.48051035959221

Live tracking on map

Real-time ground track for satellite FENGYUN 1C DEB.

In-orbit conjunctions

A list of the most updated potential collisions computed for object FENGYUN 1C DEB.

Target Orbit TCA Probability of collision Miss distance Type
COSMOS 2251 DEB LEO 2024-11-20 08:09:54 0.0001381715 95.0 (m) DEBRIS
CZ-6A DEB LEO 2024-10-20 03:48:26 0.0001294156 845.0 (m) DEBRIS
BLOCK DM-SL R/B GTO 2024-10-01 16:51:05 0.000190629 68.0 (m) ROCKET BODY
SL-8 R/B LEO 2024-09-01 15:29:29 0.0001285141 156.0 (m) ROCKET BODY

Associated space launch

Chinese polar orbiting meteorological satellite

FENGYUN 1C DEB was lifted into orbit during the mission ‘Long March 4B | Feng Yun 1C’, on board a Long March 4B space rocket.

The launch took place on May 10, 1999, 1:33 a.m. from Launch Complex 7.

For more information about the launch, click the button.

Launch to space Long March 4B | Feng Yun 1C
Long March 4B | Feng Yun 1C

Agency: N/A

Status: Launch Successful

Launch date: May 10, 1999, 1:33 a.m. UTC

Rocket: Long March 4B

Launch pad: Launch Complex 7

Location: Taiyuan Satellite Launch Center, People's Republic of China

...

Latest news about this satellite

There are no fresh news available about this satellite. Check back as we update our databases every day.


Newsletter sign-up

Weekly statistics, charts and insights to help you stay on top of the space industry.